Weather History for KISO - April, 2014

Change the Weather History Date:

Friday, April 18, 2014

  Actual Average Record
Temperature  
Mean Temperature 52 °F -  
Max Temperature 64 °F 72 °F 91 °F (1976)
Min Temperature 40 °F 51 °F 35 °F (2001)
Degree Days  
Heating Degree Days 13    
Growing Degree Days 2 (Base 50)    
Moisture  
Dew Point 42 °F    
Average Humidity 79    
Maximum Humidity 93    
Minimum Humidity 49    
Precipitation  
Precipitation 0.14 in - - ()
Sea Level Pressure  
Sea Level Pressure 30.37 in    
Wind  
Wind Speed 7 mph (NNE)    
Max Wind Speed 12 mph    
Max Gust Speed 17 mph    
Visibility 9 miles    
Events Rain    
Averages and records for this station are not official NWS values.
T = Trace of Precipitation, MM = Missing Value Source: NWS Daily Summary

Daily Weather History Graph

Daily Weather History Graph

Search for Another Location

Airport or City:

Trip Planner

Search our weather history database for the weather conditions in past years. The results will help you decide how hot, cold, wet, or windy it might be!

Date:

Astronomy

Apr. 18, 2014 Rise Set
Actual Time 6:34 AM EDT 7:45 PM EDT
Civil Twilight 6:07 AM EDT 8:12 PM EDT
Nautical Twilight 5:36 AM EDT 8:43 PM EDT
Astronomical Twilight 5:04 AM EDT 9:16 PM EDT
Moon 11:24 PM EDT (4/18) 8:59 AM EDT (4/18)
Length of Visible Light 14h 04m
Length of Day
13h 11m
Waning Gibbous, 87% of the Moon is Illuminated
Apr 18
Waning Gibbous
Apr 22
Last Quarter
Apr 29
New
May 6
First Quarter
May 14
Full

Hourly Weather History & Observations

Time (EDT) Temp. Windchill Dew Point Humidity Pressure Visibility Wind Dir Wind Speed Gust Speed Precip Events Conditions
12:15 AM 45.1 °F 41.4 °F 39.7 °F 81% 30.47 in 10.0 mi NNE 6.9 mph - N/A   Clear
12:35 AM 44.8 °F 41.0 °F 39.9 °F 83% 30.46 in 10.0 mi NNE 6.9 mph - N/A   Clear
12:55 AM 44.6 °F 39.7 °F 39.6 °F 82% 30.45 in 10.0 mi NNE 9.2 mph - N/A   Clear
1:15 AM 43.9 °F 39.9 °F 39.4 °F 84% 30.45 in 10.0 mi NNE 6.9 mph - N/A   Clear
1:35 AM 43.7 °F 40.3 °F 39.4 °F 85% 30.45 in 10.0 mi NNE 5.8 mph - N/A   Clear
1:55 AM 43.2 °F 38.4 °F 39.4 °F 86% 30.44 in 10.0 mi NNE 8.1 mph - N/A   Clear
2:15 AM 42.8 °F 38.0 °F 39.2 °F 87% 30.43 in 10.0 mi NNE 8.1 mph - N/A   Clear
2:35 AM 42.4 °F 38.1 °F 39.2 °F 88% 30.43 in 10.0 mi NNE 6.9 mph - N/A   Scattered Clouds
2:55 AM 42.3 °F 38.6 °F 39.2 °F 89% 30.43 in 10.0 mi NNE 5.8 mph - N/A   Overcast
3:15 AM 42.1 °F 37.7 °F 39.2 °F 90% 30.42 in 10.0 mi NNE 6.9 mph - N/A   Overcast
3:35 AM 41.9 °F 39.0 °F 39.2 °F 90% 30.43 in 10.0 mi NNE 4.6 mph - N/A   Mostly Cloudy
3:55 AM 41.2 °F 38.2 °F 38.8 °F 91% 30.42 in 7.0 mi North 4.6 mph - N/A   Mostly Cloudy
4:15 AM 41.0 °F 37.1 °F 39.2 °F 93% 30.41 in 7.0 mi North 5.8 mph - N/A   Mostly Cloudy
4:35 AM 41.0 °F 37.1 °F 39.2 °F 93% 30.40 in 7.0 mi North 5.8 mph - N/A   Mostly Cloudy
4:55 AM 40.5 °F 36.5 °F 38.7 °F 93% 30.41 in 7.0 mi North 5.8 mph - N/A   Scattered Clouds
5:15 AM 40.5 °F 37.3 °F 38.7 °F 93% 30.41 in 7.0 mi NNE 4.6 mph - N/A   Scattered Clouds
5:35 AM 40.5 °F 36.5 °F 38.7 °F 93% 30.40 in 7.0 mi North 5.8 mph - N/A   Clear
5:55 AM 40.5 °F 37.3 °F 38.7 °F 93% 30.40 in 7.0 mi North 4.6 mph - N/A   Clear
6:15 AM 40.5 °F 38.4 °F 38.7 °F 93% 30.41 in 7.0 mi North 3.5 mph - N/A   Clear
6:35 AM 40.6 °F 37.5 °F 38.8 °F 93% 30.42 in 7.0 mi North 4.6 mph - N/A   Scattered Clouds
6:56 AM 41.0 °F 37.1 °F 39.2 °F 93% 30.42 in 10.0 mi NNE 5.8 mph - N/A   Scattered Clouds
7:56 AM 42.8 °F 37.0 °F 39.2 °F 87% 30.42 in 7.0 mi NNE 10.4 mph - N/A   Scattered Clouds
8:56 AM 46.4 °F 41.1 °F 39.2 °F 76% 30.41 in 10.0 mi North 11.5 mph - N/A   Clear
9:56 AM 50.0 °F - 41.0 °F 71% 30.41 in 10.0 mi North 11.5 mph - N/A   Clear
10:56 AM 53.6 °F - 41.0 °F 62% 30.40 in 10.0 mi North 6.9 mph - N/A   Clear
11:56 AM 55.4 °F - 42.8 °F 63% 30.39 in 10.0 mi North 9.2 mph - N/A   Clear
12:56 PM 59.0 °F - 42.8 °F 55% 30.38 in 10.0 mi North 11.5 mph - N/A   Clear
1:56 PM 60.8 °F - 44.6 °F 55% 30.45 in 10.0 mi NNE 9.2 mph 17.3 mph N/A   Clear
2:56 PM 62.6 °F - 44.6 °F 52% 30.33 in 10.0 mi NE 10.4 mph - N/A   Mostly Cloudy
3:56 PM 64.4 °F - 44.6 °F 49% 30.28 in 10.0 mi NE 11.5 mph 16.1 mph N/A   Scattered Clouds
4:56 PM 64.4 °F - 44.6 °F 49% 30.25 in 10.0 mi NE 10.4 mph - N/A   Scattered Clouds
5:56 PM 64.4 °F - 44.6 °F 49% 30.25 in 10.0 mi ENE 10.4 mph - N/A   Scattered Clouds
6:56 PM 62.6 °F - 46.4 °F 55% 30.26 in 10.0 mi NNE 6.9 mph - N/A   Scattered Clouds
7:56 PM 60.8 °F - 46.4 °F 59% 30.24 in 10.0 mi NE 9.2 mph - N/A   Mostly Cloudy
8:56 PM 59.0 °F - 46.4 °F 63% 30.25 in 10.0 mi ENE 10.4 mph - N/A   Scattered Clouds
10:15 PM 53.8 °F - 49.3 °F 85% 30.28 in 10.0 mi East 6.9 mph - 0.01 in Rain Light Rain
10:35 PM 52.0 °F - 48.2 °F 87% 30.27 in 7.0 mi ENE 8.1 mph - 0.04 in Rain Light Rain
10:55 PM 51.4 °F - 48.2 °F 89% 30.26 in 7.0 mi NE 6.9 mph - 0.06 in Rain Rain
11:15 PM 50.9 °F - 48.6 °F 92% 30.25 in 7.0 mi NE 8.1 mph - 0.03 in Rain Rain
11:35 PM 50.7 °F - 48.4 °F 92% 30.26 in 7.0 mi ENE 8.1 mph - 0.05 in Rain Rain
11:55 PM 50.2 °F - 48.2 °F 93% 30.24 in 7.0 mi NNE 8.1 mph - 0.08 in Rain Rain